Location: St. Louis
(38.6270°N, 90.1994°W)
Time: 23:59:10
(UTC-06:00)

Vanguard 1 - Pass Details

Date: 03 December 2021
Orbit: 652 x 3830 km, 34.2° (Epoch: 21 January)

Event Time Altitude Azimuth Distance (km) Brightness Sun altitude
Rises 20:25:45 0° 189° (S) 6,253 14.2 -43.5°
Reaches altitude 10° 20:30:48 10° 176° (S) 5,712 13.8 -44.5°
Enters shadow 20:34:44 17° 164° (SSE) 5,451 13.6 -45.3°
Maximum altitude 20:44:18 24° 130° (SE) 5,448 - -47.1°
Drops below altitude 10° 21:00:19 10° 86° (E) 6,932 - -50.2°
Sets 21:07:15 0° 75° (ENE) 7,850 - -51.5°
